Location: Caltech
(34.1382°N, 118.1253°W)
Time: 21:35:23
(UTC-07:00)

Iridium 62 - Visible Passes

Search period start: 02 September 2014 00:00
Search period end: 12 September 2014 00:00
Orbit: 776 x 779 km, 86.4° (Epoch: 02 September)

Date Brightness Start Highest point End Pass type
(mag) Time Alt. Az. Time Alt. Az. Time Alt. Az.
02 Sep 6.5 20:47:37 32° E 20:47:44 32° E 20:52:18 10° NNE visible
02 Sep 7.8 22:28:03 23° W 22:28:25 23° W 22:32:32 10° NNW visible
03 Sep 7.3 20:13:43 16° E 20:14:28 17° E 20:17:40 10° NE visible
03 Sep 6.7 21:54:09 43° WSW 21:54:44 44° W 21:59:43 10° NNW visible
04 Sep 5.7 21:20:10 59° S 21:21:10 87° W 21:26:24 10° N visible
05 Sep 6.0 20:46:05 35° SE 20:47:43 47° E 20:52:42 10° NNE visible
05 Sep 8.4 22:26:30 13° WSW 22:28:40 16° WNW 22:31:45 10° NW visible
06 Sep 6.9 20:11:54 17° ESE 20:14:23 25° E 20:18:32 10° NNE visible
06 Sep 7.5 21:52:19 20° SW 21:54:54 30° W 21:59:27 10° NNW visible
07 Sep 7.6 19:39:02 10° ESE 19:41:10 13° E 19:43:19 10° NE visible
07 Sep 6.3 21:17:56 22° SSW 21:21:16 58° W 21:26:24 10° N visible
08 Sep 5.7 20:43:17 14° S 20:47:45 72° E 20:52:56 10° N visible
09 Sep 6.3 20:09:38 10° SSE 20:14:21 36° E 20:19:05 10° NNE visible
09 Sep 8.1 21:51:19 10° SW 21:55:07 20° W 21:58:56 10° NNW visible
10 Sep 7.1 19:37:29 10° SE 19:41:03 19° E 19:44:38 10° NE visible
10 Sep 7.1 21:16:35 10° SSW 21:21:24 39° W 21:26:16 10° NNW visible
11 Sep 5.9 20:42:38 10° S 20:47:49 77° W 20:53:02 10° N visible
